[[{"header":{"parameterUnit":"m.s-1","parameterCategory":1,"la1":30.2991,"la2":30.254,"lo1":-89.0895,"lo2":-89.0444,"dy":0.0017,"dx":0.0017,"nx":28,"ny":28,"refTime":"2024-06-25T21:00:00:Z","depth":0,"parameterNumber":2,"parameterNumberName":"U-component_of_WINDS"},"data":[0,0,0,0,0,0,0,0,0,0,0,0,0,0,0,0,0,0,0,0,0,0,0,0,0,0,0,0,0,0,0,0,0,0,0,0,0,0,0,0,0,0,0,0,0,0,0,0,0,0,0,0,0,0,0,0,0,0,7.8769,7.8769,0,7.8759,7.8759,7.8758,7.865,7.8647,7.8645,7.8642,7.8632,7.8634,7.8636,0,0,0,0,0,0,0,0,0,0,0,0,0,7.8698,7.87,7.8769,7.8769,7.8769,7.8759,7.8759,7.8758,7.8651,7.8647,7.8644,7.8641,7.8631,7.8634,7.8636,0,0,0,0,0,0,0,0,0,0,0,0,0,7.8712,7.87,7.8769,7.8714,7.8709,7.8759,7.8759,7.8758,7.8651,7.8647,7.8643,7.8639,7.863,7.8633,7.8637,7.8739,0,0,7.8647,7.8649,0,0,0,0,0,0,0,0,7.8712,7.8715,7.8722,7.8718,7.8712,7.8702,7.8729,7.8752,7.8652,7.8673,7.8642,7.8637,7.8658,7.8659,7.8666,7.8738,7.8738,7.8647,7.8649,7.8651,7.8652,0,0,0,0,0,0,0,7.8711,7.8715,7.8765,7.8722,7.8716,7.869,7.8688,7.8733,7.8689,7.8671,7.8663,7.8663,7.8655,7.8663,7.8665,7.8738,7.8647,7.865,7.8652,7.8654,7.8895,7.8899,0,0,0,0,0,0,7.8717,7.8715,7.8765,7.8765,7.8702,7.8695,7.8692,7.8709,7.8688,7.8681,7.8667,7.8658,7.8659,7.8661,7.8664,7.8782,7.8651,7.8654,7.8656,7.889,7.8896,7.89,0,0,0,0,0,0,7.8716,7.8723,7.8766,7.8738,7.8741,7.87,7.872,7.8711,7.8719,7.8685,7.8676,7.8683,7.8656,7.866,7.8721,7.878,7.8656,7.8659,7.8885,7.8892,7.8898,7.9019,0,0,0,0,0,0,7.8714,7.8723,7.8761,7.8739,7.8743,7.8823,7.8724,7.8714,7.8725,7.8714,7.8698,7.8691,7.8653,7.8717,7.8725,7.8782,7.8661,7.888,7.8888,7.8896,7.9009,7.9029,7.9045,0,0,0,0,0,7.8712,7.8795,7.8763,7.877,7.8789,7.8826,7.8828,7.8782,7.873,7.8768,7.8747,7.8692,7.8774,7.8724,7.8732,7.8792,7.8876,7.8886,7.8895,7.9001,7.9025,7.9045,0,0,0,0,0,0,7.8823,7.8791,7.8755,7.8833,7.8834,7.8808,7.8853,7.8809,7.8824,7.8813,7.8756,7.8753,7.8824,7.8814,7.876,7.889,7.8815,7.8827,7.8893,7.8915,7.8933,7.8932,7.8664,0,0,0,0,0,7.8857,7.889,7.886,7.8932,7.8934,7.8895,7.8909,7.8874,7.8872,7.8871,7.8854,7.8854,7.8879,7.8897,7.8919,7.9009,7.9003,7.9054,7.9072,7.9087,7.9097,7.9144,7.9166,7.8933,7.8933,7.8932,0,0,7.8927,7.8913,7.8937,7.8954,7.8949,7.8985,7.8895,7.8935,7.8961,7.8877,7.8934,7.8922,7.8919,7.8995,7.9028,7.8989,7.9161,7.91,7.9112,7.9113,7.9156,7.9178,7.9198,7.8939,7.8938,7.8937,0,0,7.9071,7.9064,7.9123,7.9122,7.9117,7.9091,7.9106,7.9088,7.9076,7.9133,7.9071,7.9102,7.9147,7.9147,7.9153,7.9302,7.9252,7.9311,7.9403,7.945,7.9468,7.9484,7.9536,7.9555,7.9322,7.9322,7.9322,0,7.9157,7.9207,7.9159,7.9204,7.9214,7.9141,7.9201,7.9202,7.9205,7.9213,7.9171,7.9227,7.922,7.9295,7.9332,7.934,7.9354,7.931,7.9469,7.9485,7.9499,7.9548,7.9567,7.9329,7.9328,7.9328,7.9327,0,7.9314,7.935,7.9399,7.9404,7.9419,7.9472,7.9432,7.9454,7.9419,7.9398,7.9457,7.9447,7.9465,7.9481,7.9448,7.9553,7.9529,7.9479,7.9402,7.9529,7.9574,7.9592,7.9339,7.9337,7.9335,7.9333,0,0,7.9523,7.9504,7.9522,7.9524,7.9515,7.9542,7.9593,7.9611,7.9631,7.9637,7.9677,7.9719,7.9673,7.968,7.9647,7.9688,7.9805,7.9633,7.9632,7.9663,7.992,7.9955,7.9977,7.9774,7.9778,7.978,7.9919,0,7.966,7.9744,7.9704,7.9792,7.9825,7.9759,7.9802,7.9803,7.9785,7.9811,7.9792,7.9822,7.976,7.9764,7.9803,7.9783,7.9856,7.9773,7.981,7.9812,7.9809,8.0001,8.0038,8.0169,7.9937,7.994,7.9942,0,7.983,7.9844,7.9936,7.9923,7.9935,7.9975,7.9989,8.0016,8.0015,8.0,8.001,7.9967,8.0016,7.9943,8.001,7.9954,7.9968,7.9961,7.9965,7.9964,7.9882,8.0003,8.021,8.0229,7.9969,7.9967,7.9965,0,7.9972,8.0014,8.0074,8.0078,8.0065,8.0095,8.009,8.0086,8.01,8.0114,8.0122,8.0142,8.0152,8.0168,8.0132,8.0083,8.0204,8.0128,8.0192,8.0193,8.0217,8.0215,8.0427,8.0231,8.0231,8.0231,8.023,0,8.0128,8.0186,8.0138,8.0174,8.0238,8.0193,8.0258,8.0247,8.0244,8.0278,8.0223,8.0256,8.0208,8.0237,8.021,8.0269,8.0274,8.0263,8.0254,8.0266,8.0267,8.0271,8.026,8.0236,8.0235,8.0234,8.0233,0,8.0295,8.0265,8.0326,8.0309,8.0307,8.0355,8.034,8.0374,8.0355,8.0398,8.0406,8.0375,8.0406,8.0373,8.0402,8.0384,8.0463,8.0442,8.0462,8.0455,8.052,8.0514,8.074,8.0766,8.0557,8.0559,8.056,0,8.0394,8.0438,8.0427,8.0446,8.0445,8.0476,8.0491,8.045,8.0467,8.0471,8.0505,8.0532,8.055,8.0603,8.0583,8.0606,8.0583,8.0662,8.0586,8.0597,8.0582,8.0578,8.0582,8.0675,8.0678,8.068,8.0682,0,8.0574,8.0558,8.0581,8.06,8.0619,8.0632,8.0641,8.066,8.0617,8.064,8.0671,8.0686,8.0716,8.0743,8.076,8.0756,8.0712,8.0707,8.0722,8.0732,8.0741,8.0735,8.0501,8.07,8.0698,8.0697,8.0696,8.0695,8.0709,8.0745,8.0743,8.0771,8.0773,8.0783,8.0814,8.0799,8.0825,8.0846,8.0821,8.0859,8.0859,8.0877,8.0879,8.0909,8.0876,8.0899,8.0904,8.0909,8.0918,8.074,8.0912,8.0912,8.0911,8.0911,8.091,0,8.0884,8.088,8.0907,8.0921,8.0944,8.0902,8.091,8.0932,8.0966,8.0971,8.0991,8.1027,8.1054,8.1038,8.1061,8.1088,8.1068,8.1095,8.109,8.109,8.0947,8.0931,8.111,8.111,8.111,8.111,8.111,8.111,8.0977,8.1035,8.1019,8.1079,8.1074,8.1112,8.112,8.1129,8.1132,8.1175,8.1197,8.1187,8.1183,8.1206,8.1229,8.1223,8.1233,8.1267,8.1254,8.112,8.11,8.1081,8.1065,8.127,8.127,8.1393,8.1395,8.1395]},{"header":{"parameterUnit":"m.s-1","parameterCategory":1,"la1":30.2991,"la2":30.254,"lo1":-89.0895,"lo2":-89.0444,"dy":0.0017,"dx":0.0017,"nx":28,"ny":28,"refTime":"2024-06-25T21:00:00:Z","depth":0,"parameterNumber":3,"parameterNumberName":"V-component_of_WINDS"},"data":[0,0,0,0,0,0,0,0,0,0,0,0,0,0,0,0,0,0,0,0,0,0,0,0,0,0,0,0,0,0,0,0,0,0,0,0,0,0,0,0,0,0,0,0,0,0,0,0,0,0,0,0,0,0,0,0,0,0,1.2845,1.2848,0,1.3066,1.3069,1.3071,1.3189,1.3189,1.3189,1.3189,1.3412,1.3418,1.3424,0,0,0,0,0,0,0,0,0,0,0,0,0,1.2521,1.2526,1.2845,1.2848,1.2851,1.3066,1.3069,1.3072,1.3189,1.3189,1.3189,1.3189,1.341,1.3417,1.3424,0,0,0,0,0,0,0,0,0,0,0,0,0,1.2693,1.2528,1.2845,1.2935,1.2945,1.3065,1.3069,1.3073,1.3189,1.3189,1.3189,1.3189,1.3408,1.3417,1.3425,1.3471,0,0,1.3451,1.3455,0,0,0,0,0,0,0,0,1.2683,1.2705,1.2919,1.2929,1.2941,1.31,1.3037,1.3206,1.3188,1.3096,1.3189,1.319,1.3308,1.3325,1.3366,1.3482,1.3491,1.3452,1.3457,1.3461,1.3463,0,0,0,0,0,0,0,1.2671,1.2696,1.2933,1.2922,1.2935,1.2963,1.2988,1.3069,1.3197,1.3104,1.3113,1.3138,1.3314,1.3357,1.3372,1.3495,1.3452,1.3459,1.3465,1.3468,1.3661,1.3661,0,0,0,0,0,0,1.2645,1.2686,1.2926,1.2939,1.281,1.2969,1.2997,1.3049,1.3197,1.322,1.3137,1.3143,1.3342,1.3361,1.338,1.3445,1.3461,1.3469,1.3474,1.3661,1.3661,1.3661,0,0,0,0,0,0,1.2638,1.2666,1.2917,1.2815,1.2849,1.2974,1.3031,1.3053,1.3096,1.3222,1.3245,1.3158,1.3343,1.3368,1.3448,1.3454,1.3473,1.3481,1.3661,1.3661,1.3661,1.3574,0,0,0,0,0,0,1.2628,1.2662,1.2682,1.2815,1.2854,1.2982,1.3032,1.3057,1.3111,1.312,1.3247,1.3269,1.3345,1.3435,1.3457,1.3466,1.3487,1.3661,1.3661,1.3661,1.3577,1.3571,1.3566,0,0,0,0,0,1.2616,1.2648,1.2682,1.2711,1.2882,1.2982,1.3005,1.3093,1.3111,1.3131,1.3212,1.3265,1.345,1.3442,1.3468,1.348,1.3661,1.3661,1.3661,1.358,1.3572,1.3566,0,0,0,0,0,0,1.2511,1.2667,1.2707,1.2783,1.2868,1.3002,1.303,1.3082,1.3164,1.3169,1.3273,1.3301,1.3372,1.3434,1.3423,1.3533,1.3561,1.3566,1.349,1.3484,1.3479,1.3463,1.3494,0,0,0,0,0,1.2497,1.2567,1.2699,1.2753,1.2794,1.2904,1.2951,1.3012,1.3105,1.3141,1.3228,1.3315,1.3393,1.3442,1.352,1.3586,1.3616,1.3607,1.3602,1.3597,1.36,1.364,1.3638,1.366,1.366,1.366,0,0,1.2468,1.2562,1.26,1.2734,1.2808,1.2877,1.2934,1.3005,1.3057,1.3152,1.3234,1.33,1.3404,1.3477,1.3514,1.3531,1.36,1.3597,1.3592,1.3598,1.364,1.3637,1.3635,1.366,1.366,1.366,0,0,1.2452,1.2529,1.2584,1.2657,1.2768,1.2841,1.2853,1.2979,1.3028,1.3112,1.3184,1.3247,1.3379,1.345,1.3503,1.3513,1.3565,1.3536,1.3508,1.3545,1.3543,1.3542,1.3547,1.3547,1.3539,1.3538,1.3538,0,1.2402,1.251,1.2605,1.2672,1.2729,1.2819,1.2874,1.294,1.307,1.3106,1.3124,1.3292,1.3368,1.346,1.3462,1.3502,1.352,1.3522,1.3536,1.3536,1.3537,1.3542,1.3543,1.3534,1.3535,1.3535,1.3535,0,1.2444,1.2517,1.2548,1.2673,1.2733,1.2793,1.2896,1.2946,1.3001,1.3071,1.3156,1.325,1.335,1.3376,1.3429,1.3475,1.3482,1.3516,1.3547,1.3529,1.3535,1.3538,1.3528,1.353,1.3531,1.3532,0,0,1.2368,1.2545,1.2554,1.2613,1.2742,1.28,1.2864,1.2963,1.3003,1.309,1.3146,1.3255,1.3288,1.3349,1.3411,1.3444,1.3447,1.3475,1.3479,1.3467,1.3503,1.3477,1.3478,1.3481,1.3482,1.3482,1.3495,0,1.237,1.2491,1.2578,1.2665,1.2735,1.2821,1.2877,1.2962,1.3029,1.3097,1.3172,1.3248,1.3285,1.3322,1.3359,1.3438,1.3455,1.3439,1.3534,1.3537,1.3507,1.3482,1.3455,1.3462,1.3498,1.3498,1.3499,0,1.2389,1.2475,1.2569,1.2692,1.2724,1.2773,1.2871,1.2934,1.3032,1.3079,1.3146,1.3211,1.3281,1.3304,1.3403,1.3389,1.3433,1.3478,1.3481,1.3494,1.3517,1.3495,1.3466,1.3467,1.3504,1.3503,1.3503,0,1.2325,1.2463,1.2538,1.2585,1.273,1.2762,1.2823,1.2922,1.2975,1.306,1.3096,1.3187,1.3236,1.3305,1.3392,1.34,1.3482,1.3512,1.3523,1.352,1.3537,1.3534,1.3515,1.3563,1.3563,1.3563,1.3563,0,1.2319,1.2374,1.2512,1.2558,1.2621,1.272,1.278,1.2848,1.2934,1.2995,1.3074,1.3128,1.324,1.3307,1.3375,1.3447,1.3468,1.3508,1.3526,1.3502,1.3497,1.3533,1.3535,1.3563,1.3563,1.3563,1.3563,0,1.2258,1.2353,1.2441,1.2571,1.2605,1.2646,1.2757,1.2804,1.2876,1.2951,1.2974,1.3087,1.3171,1.3264,1.3378,1.3424,1.3492,1.3517,1.3459,1.347,1.3476,1.3474,1.348,1.3485,1.3527,1.3527,1.3526,0,1.2249,1.2293,1.2428,1.2475,1.2535,1.2609,1.2665,1.2763,1.2818,1.2932,1.2965,1.3056,1.3133,1.3263,1.3354,1.3442,1.347,1.3466,1.3484,1.3458,1.3471,1.3468,1.3473,1.3461,1.346,1.3459,1.3459,0,1.2222,1.2267,1.2345,1.244,1.2504,1.2583,1.2665,1.2698,1.2813,1.287,1.2957,1.3017,1.3135,1.3223,1.3323,1.3385,1.344,1.3452,1.346,1.3436,1.3401,1.3421,1.3446,1.3452,1.3452,1.3453,1.3453,1.3454,1.2187,1.2231,1.2333,1.2418,1.249,1.2565,1.2616,1.2695,1.277,1.2875,1.2928,1.3015,1.3111,1.325,1.3311,1.338,1.3398,1.3408,1.3411,1.3412,1.3406,1.3389,1.3398,1.3398,1.3398,1.3399,1.3399,0,1.2165,1.2235,1.2312,1.2425,1.2491,1.2539,1.2632,1.2684,1.276,1.2846,1.2921,1.3021,1.3108,1.3206,1.3298,1.3334,1.3362,1.3355,1.3354,1.3367,1.3384,1.3369,1.3331,1.3331,1.3331,1.3331,1.3331,1.3331,1.2161,1.2238,1.2295,1.2408,1.2478,1.2565,1.2614,1.2683,1.2753,1.2862,1.2935,1.2998,1.3089,1.3189,1.327,1.3296,1.3327,1.3312,1.3346,1.336,1.3366,1.3371,1.3358,1.3318,1.3318,1.3324,1.3324,1.3324]}]]